[[{"header":{"parameterUnit":"m.s-1","parameterCategory":1,"la1":30.2991,"la2":30.254,"lo1":-89.0895,"lo2":-89.0444,"dy":0.0017,"dx":0.0017,"nx":28,"ny":28,"refTime":"2025-07-17T03:00:00:Z","depth":0,"parameterNumber":2,"parameterNumberName":"U-component_of_WINDS"},"data":[0,0,0,0,0,0,0,0,0,0,0,0,0,0,0,0,0,0,0,0,0,0,0,0,0,0,0,0,0,0,0,0,0,0,0,0,0,0,0,0,0,0,0,0,0,0,0,0,0,0,0,0,0,0,0,0,0,0,0.0678,0.0678,0,0.0615,0.0615,0.0614,0.0528,0.0526,0.0525,0.0524,0.046,0.0459,0.0459,0,0,0,0,0,0,0,0,0,0,0,0,0,0.0725,0.0725,0.0678,0.0678,0.0677,0.0616,0.0615,0.0614,0.0528,0.0526,0.0525,0.0523,0.046,0.0459,0.0459,0,0,0,0,0,0,0,0,0,0,0,0,0,0.0688,0.0725,0.0679,0.0627,0.0621,0.0616,0.0615,0.0614,0.0529,0.0526,0.0524,0.0522,0.046,0.0459,0.0459,0.0499,0,0,0.0457,0.0457,0,0,0,0,0,0,0,0,0.069,0.0686,0.0635,0.063,0.0624,0.0577,0.0607,0.0575,0.0529,0.0564,0.0524,0.0521,0.05,0.0496,0.0489,0.0496,0.0493,0.0457,0.0457,0.0456,0.0456,0,0,0,0,0,0,0,0.0693,0.0688,0.0653,0.0634,0.0628,0.0607,0.0599,0.0601,0.0545,0.0561,0.0554,0.0548,0.0497,0.049,0.0487,0.0492,0.0457,0.0457,0.0456,0.0456,0.0528,0.0531,0,0,0,0,0,0,0.0703,0.0691,0.0655,0.0652,0.0652,0.0608,0.0599,0.0595,0.0545,0.0535,0.055,0.0544,0.0492,0.0488,0.0485,0.0528,0.0456,0.0456,0.0456,0.0526,0.0529,0.0531,0,0,0,0,0,0,0.0704,0.0701,0.0658,0.067,0.0663,0.0609,0.0605,0.0595,0.0587,0.0537,0.0526,0.0553,0.049,0.0485,0.0496,0.0525,0.0456,0.0455,0.0524,0.0527,0.053,0.0616,0,0,0,0,0,0,0.0706,0.0702,0.0716,0.0671,0.0662,0.067,0.0607,0.0595,0.0587,0.0579,0.0537,0.0528,0.0488,0.0497,0.0495,0.0523,0.0455,0.0521,0.0525,0.0529,0.061,0.0622,0.0632,0,0,0,0,0,0.0708,0.0743,0.0717,0.0713,0.0679,0.0672,0.0667,0.0621,0.0589,0.0604,0.0571,0.0529,0.0522,0.0499,0.0496,0.0524,0.0519,0.0524,0.0529,0.0606,0.062,0.0632,0,0,0,0,0,0,0.0793,0.0736,0.0707,0.0728,0.0706,0.0658,0.0674,0.0637,0.0624,0.0617,0.056,0.0551,0.0569,0.0547,0.0523,0.056,0.0514,0.0519,0.0574,0.0586,0.0597,0.0602,0.0454,0,0,0,0,0,0.0814,0.0813,0.0763,0.0787,0.0777,0.0728,0.0723,0.0689,0.0664,0.0654,0.0622,0.0599,0.0592,0.0588,0.0578,0.0607,0.0597,0.0625,0.0636,0.0645,0.0649,0.0663,0.0675,0.0548,0.0548,0.0548,0,0,0.0858,0.0827,0.083,0.0803,0.0782,0.0782,0.0721,0.0723,0.0723,0.0654,0.0662,0.0638,0.0609,0.0629,0.0636,0.0612,0.0682,0.0651,0.0659,0.0658,0.067,0.0682,0.0692,0.0551,0.0551,0.055,0,0,0.0938,0.0915,0.0931,0.0911,0.088,0.0847,0.0851,0.0809,0.0791,0.0798,0.0746,0.0745,0.0733,0.0715,0.0704,0.0777,0.0738,0.0776,0.0832,0.0846,0.0856,0.0865,0.0891,0.0901,0.0781,0.0781,0.0781,0,0.0997,0.0995,0.0945,0.0951,0.0941,0.0879,0.0896,0.0879,0.0846,0.0841,0.0814,0.0798,0.0774,0.0789,0.0807,0.08,0.0803,0.078,0.0859,0.0867,0.0874,0.0898,0.0909,0.0786,0.0785,0.0785,0.0784,0,0.1068,0.1068,0.1085,0.1055,0.1047,0.1059,0.1011,0.1009,0.0976,0.0947,0.0955,0.0924,0.0907,0.0908,0.0876,0.0918,0.0904,0.0869,0.0821,0.0892,0.0914,0.0923,0.0793,0.0791,0.0789,0.0788,0,0,0.1199,0.1142,0.1149,0.1134,0.1096,0.1095,0.1104,0.1087,0.1087,0.1067,0.1073,0.1065,0.1032,0.1019,0.0985,0.0998,0.1058,0.096,0.0959,0.098,0.1103,0.113,0.1141,0.1032,0.1034,0.1035,0.1106,0,0.1271,0.1283,0.1238,0.1262,0.1261,0.1203,0.1211,0.1188,0.1161,0.1156,0.1126,0.1121,0.1078,0.1071,0.108,0.1049,0.1082,0.1043,0.1037,0.1038,0.1046,0.1153,0.1181,0.1249,0.1114,0.1115,0.1116,0,0.1356,0.134,0.1364,0.1324,0.1322,0.133,0.1312,0.1308,0.1282,0.1261,0.1248,0.1208,0.1214,0.117,0.1178,0.1152,0.1147,0.1132,0.1133,0.113,0.1081,0.1153,0.1269,0.128,0.1129,0.1128,0.1127,0,0.1449,0.1434,0.1446,0.1436,0.139,0.1397,0.1378,0.1349,0.1342,0.1327,0.1322,0.1307,0.1299,0.1288,0.1246,0.1217,0.1259,0.121,0.1242,0.1243,0.1253,0.1253,0.137,0.1251,0.1251,0.1251,0.125,0,0.1533,0.155,0.1487,0.1494,0.1512,0.1461,0.1479,0.1455,0.143,0.1432,0.1381,0.1384,0.1328,0.1324,0.1291,0.1303,0.13,0.1283,0.1274,0.1288,0.129,0.1283,0.1278,0.1253,0.1253,0.1252,0.1252,0,0.1639,0.1598,0.1607,0.1563,0.1553,0.1567,0.153,0.1535,0.1505,0.1508,0.1506,0.1459,0.1453,0.1409,0.1393,0.1371,0.1395,0.1377,0.1404,0.1398,0.1432,0.143,0.1549,0.1562,0.1435,0.1437,0.1438,0,0.1695,0.1707,0.1665,0.1662,0.1646,0.1643,0.1636,0.1587,0.1582,0.1553,0.1562,0.1552,0.154,0.1533,0.1498,0.1485,0.1466,0.1509,0.1464,0.1477,0.1467,0.1466,0.1467,0.1518,0.152,0.1521,0.1522,0,0.18,0.1779,0.177,0.1756,0.1749,0.1734,0.1717,0.1718,0.1664,0.1661,0.1654,0.1646,0.163,0.162,0.1602,0.1582,0.1544,0.1537,0.1544,0.1557,0.1573,0.1565,0.143,0.1534,0.1533,0.1532,0.1532,0.1531,0.1882,0.1889,0.1861,0.1854,0.1836,0.1821,0.1824,0.1795,0.1788,0.1771,0.1743,0.1741,0.1714,0.1686,0.167,0.1667,0.1645,0.1654,0.1657,0.166,0.1667,0.1574,0.1664,0.1663,0.1663,0.1663,0.1662,0,0.1983,0.1962,0.1956,0.1934,0.1929,0.1893,0.1872,0.187,0.1869,0.1847,0.1838,0.1831,0.1821,0.1786,0.1773,0.1778,0.176,0.1776,0.1775,0.1771,0.1688,0.1683,0.1791,0.1791,0.1791,0.1791,0.1791,0.1791,0.2035,0.2046,0.2023,0.2025,0.2004,0.2001,0.1992,0.1978,0.1961,0.1956,0.1948,0.1925,0.1898,0.1883,0.1873,0.1863,0.186,0.1883,0.1867,0.1789,0.1777,0.1765,0.1761,0.1883,0.1883,0.195,0.1951,0.1951]},{"header":{"parameterUnit":"m.s-1","parameterCategory":1,"la1":30.2991,"la2":30.254,"lo1":-89.0895,"lo2":-89.0444,"dy":0.0017,"dx":0.0017,"nx":28,"ny":28,"refTime":"2025-07-17T03:00:00:Z","depth":0,"parameterNumber":3,"parameterNumberName":"V-component_of_WINDS"},"data":[0,0,0,0,0,0,0,0,0,0,0,0,0,0,0,0,0,0,0,0,0,0,0,0,0,0,0,0,0,0,0,0,0,0,0,0,0,0,0,0,0,0,0,0,0,0,0,0,0,0,0,0,0,0,0,0,0,0,5.5846,5.5847,0,5.5963,5.5964,5.5966,5.591,5.5907,5.5904,5.5901,5.6017,5.6023,5.6029,0,0,0,0,0,0,0,0,0,0,0,0,0,5.5566,5.5572,5.5845,5.5847,5.5848,5.5963,5.5965,5.5966,5.5911,5.5907,5.5903,5.59,5.6015,5.6022,5.6029,0,0,0,0,0,0,0,0,0,0,0,0,0,5.5686,5.5573,5.5845,5.5835,5.5835,5.5963,5.5965,5.5967,5.5911,5.5907,5.5902,5.5898,5.6013,5.6022,5.603,5.6174,0,0,5.6057,5.6061,0,0,0,0,0,0,0,0,5.5679,5.5696,5.5835,5.5836,5.5836,5.5917,5.5909,5.6036,5.5912,5.5882,5.5901,5.5896,5.5987,5.5998,5.603,5.618,5.6185,5.6058,5.6063,5.6067,5.607,0,0,0,0,0,0,0,5.5671,5.5691,5.5892,5.5837,5.5838,5.5822,5.5834,5.5932,5.5958,5.5884,5.5881,5.5896,5.5987,5.6022,5.6032,5.6186,5.6058,5.6066,5.6071,5.6075,5.6456,5.646,0,0,0,0,0,0,5.5664,5.5684,5.5888,5.5895,5.5745,5.583,5.5844,5.5896,5.5957,5.5962,5.5899,5.5893,5.6009,5.6022,5.6036,5.6206,5.6067,5.6075,5.608,5.6451,5.6457,5.6462,0,0,0,0,0,0,5.5658,5.5683,5.5883,5.5789,5.5813,5.584,5.5899,5.59,5.5935,5.5968,5.5972,5.593,5.6006,5.6024,5.614,5.6209,5.6079,5.6087,5.6445,5.6453,5.6459,5.6548,0,0,0,0,0,0,5.565,5.5681,5.5737,5.5791,5.5819,5.5987,5.5903,5.5906,5.5951,5.5943,5.5998,5.6003,5.6004,5.6127,5.6148,5.6219,5.6094,5.6439,5.6448,5.6457,5.6539,5.6557,5.6573,0,0,0,0,0,5.564,5.5758,5.5741,5.5766,5.589,5.5991,5.6007,5.6006,5.5957,5.6012,5.6033,5.6001,5.6198,5.6139,5.6163,5.6237,5.6435,5.6446,5.6456,5.6531,5.6554,5.6573,0,0,0,0,0,0,5.5711,5.5764,5.5746,5.5884,5.5934,5.5982,5.6052,5.6031,5.6094,5.6084,5.6079,5.6092,5.6212,5.6236,5.6169,5.6377,5.6308,5.6325,5.6357,5.6379,5.6395,5.6386,5.6102,0,0,0,0,0,5.5743,5.5822,5.5864,5.5982,5.6007,5.6026,5.607,5.6065,5.6115,5.6136,5.6165,5.6214,5.6286,5.6334,5.6403,5.6542,5.6552,5.6605,5.6622,5.6636,5.6649,5.6721,5.6744,5.6498,5.6498,5.6497,0,0,5.5809,5.5848,5.5898,5.5997,5.6034,5.6114,5.6044,5.6132,5.6191,5.6148,5.6259,5.6283,5.6336,5.6464,5.6522,5.6488,5.6719,5.6649,5.666,5.6666,5.6735,5.6758,5.6779,5.6505,5.6504,5.6503,0,0,5.597,5.6009,5.611,5.6149,5.6207,5.6218,5.6242,5.6293,5.6307,5.6419,5.6388,5.6456,5.6582,5.6621,5.6657,5.683,5.6801,5.6852,5.6941,5.7011,5.7031,5.7048,5.7107,5.7128,5.6866,5.6866,5.6866,0,5.6044,5.6166,5.6164,5.6254,5.6297,5.6263,5.6363,5.6401,5.6478,5.6507,5.6469,5.6624,5.6658,5.6792,5.6834,5.6866,5.6891,5.6845,5.7028,5.7045,5.7061,5.7117,5.714,5.6872,5.6871,5.687,5.687,0,5.6252,5.6337,5.6411,5.6487,5.6538,5.6633,5.6643,5.6694,5.6684,5.6699,5.6811,5.685,5.6925,5.6957,5.6948,5.7089,5.7066,5.7029,5.6959,5.709,5.7143,5.7165,5.688,5.6877,5.6876,5.6874,0,0,5.6462,5.6534,5.6561,5.6594,5.6654,5.6718,5.681,5.6884,5.6927,5.6981,5.7055,5.7162,5.7126,5.7167,5.7162,5.7224,5.7355,5.7178,5.7179,5.7208,5.751,5.7536,5.7562,5.7337,5.7341,5.7345,5.7504,0,5.6625,5.6788,5.6787,5.6936,5.7012,5.698,5.7059,5.7104,5.7119,5.7184,5.72,5.7274,5.7223,5.7247,5.7308,5.7326,5.7415,5.7315,5.7404,5.7408,5.739,5.759,5.7619,5.7768,5.7525,5.7529,5.7531,0,5.6838,5.6898,5.7055,5.7102,5.7134,5.7206,5.7271,5.7335,5.7383,5.7389,5.7434,5.7419,5.7509,5.7438,5.7561,5.7493,5.7529,5.7544,5.755,5.7556,5.7476,5.7599,5.7815,5.7837,5.7564,5.7561,5.7559,0,5.6971,5.7092,5.7201,5.723,5.7288,5.7339,5.7365,5.7409,5.7452,5.7509,5.7537,5.7604,5.764,5.7691,5.7693,5.7641,5.7816,5.7746,5.7822,5.7822,5.7859,5.7856,5.8081,5.7886,5.7886,5.7885,5.7885,0,5.7153,5.7249,5.7261,5.7328,5.7434,5.7431,5.7536,5.7557,5.7596,5.7664,5.764,5.7705,5.7704,5.7769,5.7771,5.7871,5.7888,5.7894,5.7893,5.7895,5.7894,5.7917,5.7906,5.7891,5.789,5.7889,5.7888,0,5.732,5.7332,5.7448,5.7493,5.7506,5.7582,5.7619,5.7681,5.7694,5.778,5.78,5.7819,5.7894,5.7901,5.7988,5.7989,5.8109,5.8098,5.8093,5.809,5.8165,5.8157,5.8412,5.8444,5.8229,5.8231,5.8233,0,5.7434,5.7507,5.756,5.7604,5.7633,5.7705,5.7749,5.7749,5.7795,5.7854,5.7908,5.7981,5.8038,5.8159,5.8179,5.8244,5.8233,5.8318,5.8243,5.8242,5.8232,5.8226,5.8232,5.8332,5.8334,5.8336,5.8338,0,5.7634,5.7636,5.7701,5.7768,5.7821,5.7873,5.7922,5.7959,5.7964,5.8017,5.8093,5.8138,5.8226,5.8297,5.8361,5.8385,5.8362,5.8361,5.8382,5.8384,5.8377,5.8379,5.813,5.8355,5.8354,5.8352,5.8351,5.8351,5.7777,5.7839,5.7885,5.7957,5.7994,5.804,5.8099,5.8119,5.8183,5.8255,5.825,5.8334,5.8377,5.846,5.8489,5.8553,5.8525,5.8555,5.8562,5.857,5.8576,5.8369,5.8565,5.8565,5.8564,5.8564,5.8563,0,5.7974,5.8001,5.8068,5.8137,5.8193,5.8167,5.8218,5.8266,5.8341,5.8384,5.8441,5.8527,5.8595,5.862,5.8686,5.8732,5.8723,5.8749,5.8745,5.875,5.8599,5.8574,5.8756,5.8756,5.8755,5.8755,5.8755,5.8755,5.8083,5.8186,5.8193,5.8313,5.8339,5.8421,5.8453,5.8494,5.8528,5.8625,5.8682,5.8698,5.8733,5.8801,5.8862,5.8867,5.8891,5.8922,5.8923,5.8781,5.8761,5.8743,5.8719,5.8928,5.8928,5.9068,5.907,5.9071]}]]